Weather History for Hazlehurst, GA

Change the Weather History Date:

Thursday, January 24, 2013

  Actual Average Record
Temperature  
Mean Temperature 57 °F -  
Max Temperature 67 °F 57 °F 72 °F (2014)
Min Temperature 46 °F 37 °F 27 °F (2014)
Degree Days  
Heating Degree Days 8    
Growing Degree Days 7 (Base 50)    
Moisture  
Dew Point 44 °F    
Average Humidity 66    
Maximum Humidity 87    
Minimum Humidity 48    
Precipitation  
Precipitation 0.00 in - - ()
Sea Level Pressure  
Sea Level Pressure 30.24 in    
Wind  
Wind Speed 6 mph (WNW)    
Max Wind Speed 13 mph    
Max Gust Speed 21 mph    
Visibility 10 miles    
Events      
Averages and records for this station are not official NWS values.
T = Trace of Precipitation, MM = Missing Value Source: NWS Daily Summary

Daily Weather History Graph

Daily Weather History Graph

Search for Another Location

Airport:

Trip Planner

Search our weather history database for the weather conditions in past years. The results will help you decide how hot, cold, wet, or windy it might be!

Date:

Astronomy

Jan. 24, 2013 Rise Set
Actual Time 7:28 AM EST 5:57 PM EST
Civil Twilight 7:02 AM EST 6:23 PM EST
Nautical Twilight 6:32 AM EST 6:53 PM EST
Astronomical Twilight 6:03 AM EST 7:22 PM EST
Moon 4:00 PM EST (1/24) 5:22 AM EST (1/24)
Length of Visible Light 11h 21m
Length of Day
10h 29m
Waxing Gibbous, 94% of the Moon is Illuminated
Jan 24
Waxing Gibbous
Jan 26
Full
Feb 3
Last Quarter
Feb 10
New
Feb 17
First Quarter

Hourly Weather History & Observations

Time (EST) Temp. Dew Point Humidity Pressure Visibility Wind Dir Wind Speed Gust Speed Precip Events Conditions
12:15 AM 49.8 °F 40.6 °F 71% 30.24 in 10.0 mi WSW 6.9 mph - N/A   Clear
12:35 AM 49.8 °F 40.8 °F 71% 30.23 in 10.0 mi SW 6.9 mph - N/A   Scattered Clouds
12:55 AM 49.8 °F 41.0 °F 72% 30.23 in 10.0 mi WSW 5.8 mph - N/A   Scattered Clouds
1:15 AM 49.5 °F 41.0 °F 73% 30.23 in 10.0 mi SW 4.6 mph - N/A   Scattered Clouds
1:35 AM 48.9 °F 41.0 °F 74% 30.24 in 10.0 mi WSW 3.5 mph - N/A   Scattered Clouds
1:55 AM 49.1 °F 41.2 °F 74% 30.24 in 10.0 mi WSW 6.9 mph - N/A   Mostly Cloudy
2:15 AM 49.3 °F 41.5 °F 75% 30.23 in 10.0 mi SW 5.8 mph - N/A   Overcast
2:35 AM 49.6 °F 41.9 °F 75% 30.22 in 10.0 mi WSW 6.9 mph - N/A   Scattered Clouds
2:55 AM 49.6 °F 41.9 °F 75% 30.22 in 10.0 mi WSW 8.1 mph - N/A   Clear
3:15 AM 49.3 °F 42.1 °F 76% 30.21 in 10.0 mi WSW 6.9 mph - N/A   Clear
3:35 AM 49.3 °F 42.4 °F 77% 30.21 in 10.0 mi WSW 5.8 mph - N/A   Clear
3:55 AM 49.3 °F 43.2 °F 79% 30.21 in 10.0 mi WSW 5.8 mph - N/A   Scattered Clouds
4:15 AM 49.5 °F 43.9 °F 81% 30.20 in 10.0 mi WSW 6.9 mph - N/A   Mostly Cloudy
4:35 AM 49.3 °F 44.4 °F 83% 30.19 in 10.0 mi SW 5.8 mph - N/A   Mostly Cloudy
4:55 AM 50.0 °F 45.1 °F 83% 30.19 in 10.0 mi SW 5.8 mph - N/A   Overcast
5:15 AM 50.7 °F 45.5 °F 82% 30.20 in 10.0 mi WSW 4.6 mph - N/A   Overcast
5:55 AM 51.3 °F 45.7 °F 81% 30.21 in 10.0 mi WSW 10.4 mph - N/A   Overcast
6:15 AM 50.9 °F 45.7 °F 82% 30.21 in 10.0 mi WSW 5.8 mph - N/A   Mostly Cloudy
6:35 AM 50.9 °F 45.7 °F 82% 30.21 in 10.0 mi WSW 8.1 mph - N/A   Overcast
7:15 AM 50.4 °F 45.9 °F 85% 30.21 in 10.0 mi WSW 5.8 mph - N/A   Scattered Clouds
7:35 AM 49.6 °F 46.0 °F 87% 30.21 in 10.0 mi WSW 8.1 mph - N/A   Clear
7:55 AM 50.0 °F 46.2 °F 87% 30.21 in 10.0 mi SW 4.6 mph - N/A   Mostly Cloudy
8:15 AM 50.5 °F 46.8 °F 87% 30.22 in 10.0 mi WSW 3.5 mph - N/A   Overcast
8:35 AM 51.6 °F 47.1 °F 85% 30.24 in 10.0 mi West 3.5 mph - N/A   Mostly Cloudy
8:55 AM 53.1 °F 47.5 °F 81% 30.24 in 10.0 mi West 5.8 mph - N/A   Mostly Cloudy
9:15 AM 54.5 °F 47.8 °F 78% 30.24 in 10.0 mi West 5.8 mph - N/A   Scattered Clouds
9:35 AM 55.8 °F 48.4 °F 76% 30.24 in 10.0 mi West 6.9 mph - N/A   Clear
9:55 AM 57.4 °F 49.1 °F 74% 30.24 in 10.0 mi West 9.2 mph 20.7 mph N/A   Scattered Clouds
10:15 AM 58.6 °F 49.5 °F 72% 30.25 in 10.0 mi West 3.5 mph 18.4 mph N/A   Scattered Clouds
10:35 AM 60.1 °F 50.0 °F 69% 30.25 in 10.0 mi West 9.2 mph 16.1 mph N/A   Clear
10:55 AM 61.0 °F 50.2 °F 68% 30.24 in 10.0 mi WNW 9.2 mph 17.3 mph N/A   Clear
11:15 AM 61.9 °F 50.4 °F 66% 30.25 in 10.0 mi West 6.9 mph 16.1 mph N/A   Clear
11:35 AM 63.0 °F 50.5 °F 64% 30.25 in 10.0 mi WNW 9.2 mph 16.1 mph N/A   Clear
11:55 AM 64.0 °F 50.7 °F 62% 30.25 in 10.0 mi WNW 9.2 mph - N/A   Clear
12:15 PM 64.8 °F 50.5 °F 60% 30.24 in 10.0 mi NW 10.4 mph 16.1 mph N/A   Clear
12:35 PM 64.8 °F 50.0 °F 59% 30.23 in 10.0 mi NW 8.1 mph 17.3 mph N/A   Clear
12:55 PM 65.5 °F 50.2 °F 58% 30.22 in 10.0 mi WNW 10.4 mph 16.1 mph N/A   Clear
1:15 PM 66.2 °F 50.2 °F 56% 30.22 in 10.0 mi NW 6.9 mph 17.3 mph N/A   Scattered Clouds
1:35 PM 66.9 °F 50.2 °F 55% 30.20 in 10.0 mi NW 12.7 mph 17.3 mph N/A   Scattered Clouds
1:55 PM 66.2 °F 49.3 °F 54% 30.20 in 10.0 mi WNW 11.5 mph 17.3 mph N/A   Clear
2:15 PM 66.0 °F 49.8 °F 56% 30.20 in 10.0 mi WNW 6.9 mph - N/A   Mostly Cloudy
2:35 PM 65.7 °F 49.8 °F 57% 30.19 in 10.0 mi WNW 6.9 mph - N/A   Scattered Clouds
2:55 PM 66.7 °F 49.1 °F 53% 30.19 in 10.0 mi NW 9.2 mph 20.7 mph N/A   Mostly Cloudy
3:15 PM 67.6 °F 48.6 °F 50% 30.19 in 10.0 mi NW 6.9 mph - N/A   Mostly Cloudy
3:35 PM 66.7 °F 48.6 °F 52% 30.20 in 10.0 mi NNW 12.7 mph 18.4 mph N/A   Mostly Cloudy
3:55 PM 65.7 °F 47.5 °F 52% 30.21 in 10.0 mi WNW 6.9 mph - N/A   Mostly Cloudy
4:15 PM 66.0 °F 47.3 °F 51% 30.21 in 10.0 mi NNW 9.2 mph - N/A   Scattered Clouds
4:35 PM 66.2 °F 46.8 °F 50% 30.21 in 10.0 mi NW 8.1 mph - N/A   Clear
4:55 PM 65.7 °F 46.8 °F 50% 30.21 in 10.0 mi NW 4.6 mph - N/A   Clear
5:15 PM 64.8 °F 46.8 °F 52% 30.22 in 10.0 mi NW 5.8 mph - N/A   Clear
5:55 PM 62.2 °F 46.4 °F 56% 30.23 in 10.0 mi NNW 3.5 mph - N/A   Clear
6:15 PM 61.0 °F 45.3 °F 56% 30.24 in 10.0 mi NW 3.5 mph - N/A   Clear
6:35 PM 60.1 °F 44.2 °F 56% 30.24 in 10.0 mi NNW 3.5 mph - N/A   Clear
6:55 PM 58.1 °F 44.2 °F 60% 30.25 in 10.0 mi Calm Calm - N/A   Clear
7:15 PM 55.9 °F 43.9 °F 64% 30.26 in 10.0 mi North 3.5 mph - N/A   Clear
7:35 PM 55.6 °F 43.2 °F 63% 30.27 in 10.0 mi NNE 5.8 mph - N/A   Clear
7:55 PM 56.3 °F 41.5 °F 58% 30.27 in 10.0 mi NNE 4.6 mph - N/A   Clear
8:15 PM 55.6 °F 40.3 °F 56% 30.28 in 10.0 mi NNE 3.5 mph - N/A   Clear
8:35 PM 54.3 °F 39.7 °F 58% 30.29 in 10.0 mi Calm Calm - N/A   Clear
8:55 PM 53.4 °F 38.7 °F 57% 30.29 in 10.0 mi NNE 3.5 mph - N/A   Clear
9:15 PM 51.6 °F 38.8 °F 62% 30.30 in 10.0 mi NNE 3.5 mph - N/A   Clear
9:35 PM 52.0 °F 37.0 °F 57% 30.30 in 10.0 mi NE 5.8 mph - N/A   Clear
9:55 PM 52.3 °F 33.4 °F 49% 30.31 in 10.0 mi NE 8.1 mph - N/A   Clear
10:15 PM 51.3 °F 32.0 °F 48% 30.32 in 10.0 mi Calm Calm - N/A   Clear
10:35 PM 49.6 °F 32.4 °F 51% 30.32 in 10.0 mi Calm Calm - N/A   Clear
10:55 PM 48.0 °F 32.5 °F 55% 30.33 in 10.0 mi NNE 4.6 mph - N/A   Clear
11:15 PM 48.4 °F 29.7 °F 48% 30.34 in 10.0 mi ENE 10.4 mph - N/A   Clear
11:35 PM 47.7 °F 33.8 °F 59% 30.34 in 10.0 mi East 11.5 mph 20.7 mph N/A   Scattered Clouds
11:55 PM 46.9 °F 39.4 °F 75% 30.35 in 10.0 mi East 9.2 mph 16.1 mph N/A   Scattered Clouds